Content
SEND FEEDBACK

Daily
Averages
Monthly
Summary
Canada

VANCOUVER, BRITISH COLUMBIA


Home > North America > Canada > British Columbia
Elevation: 2 meters     Latitude: 49 11N     Longitude: 123 10W

WEATHER
 
SELECT A DAY
Number of Records: 252,242;   Date Range: 5/15/97 - 9/30/14
 
SHARE

PRINT THIS DATA

[ ← Previous Day ]
WEATHER ALMANAC - 6 FEBRUARY, 2013
[ Next Day → ]
[ °F ]   °C
Weather ElementAverageHighLow
Temperature7.4 °C10 °C (11:15 pm)6 °C (1:35 am)
Dewpoint3.9 °C5 °C (12:35 am)2 °C (9:55 pm)
Humidity79.5 %93 % (1:35 am)58 % (11:15 pm)
Barometer1012.2 hPa1014.9 hPa (8:35 am)1006.4 hPa (10:55 pm)
Wind Speed14 km/h25.9 km/h (11:15 pm)
Wind Gust46.3 km/h (9:55 pm)
Weather ElementAverage
Visibility15.4 km
Wind DirectionSSE (169.2 °)

Weather ElementTotal
Precipitation---
Heating Degree Days10.3 (Base 18.3)
Averaged from 63 records on 6 February, 2013
WEATHER CONDITIONS BREAKOUT
WIND DIRECTION BREAKOUT
WEATHER BY HOUR - 6 FEBRUARY, 2013
[ °F ]   °C
Local TimeTemperatureDewpointHumidityBarometerVisibilityWind DirectionWind SpeedGust SpeedPrecipitationEventsConditions
12:35 AM7 °C5 °C87 %1011.9 hPa16.1 kmSSW (200°)18.5 km/h25.9 km/hMostly Cloudy
1:15 AM7 °C5 °C87 %1012.2 hPa16.1 kmSouth (190°)13 km/hScattered Clouds
1:35 AM6 °C5 °C93 %1012.5 hPa16.1 kmSSW (200°)16.7 km/hMostly Cloudy
2:15 AM6 °C5 °C93 %1012.5 hPa16.1 kmSouth (190°)14.8 km/hMostly Cloudy
2:35 AM7 °C5 °C87 %1012.9 hPa16.1 kmSSW (200°)9.3 km/hRainLight Rain
2:55 AM7 °C5 °C87 %1012.9 hPa16.1 kmSSW (210°)16.7 km/hMostly Cloudy
3:15 AM6 °C5 °C93 %1013.2 hPa16.1 kmSSW (200°)13 km/hScattered Clouds
3:35 AM6 °C5 °C93 %1013.2 hPa12.9 kmSSW (210°)11.1 km/hRainLight Rain
3:55 AM6 °C5 °C93 %1013.5 hPa16.1 kmSouth (180°)5.6 km/hMostly Cloudy
4:15 AM6 °C5 °C93 %1013.5 hPa16.1 kmSSW (210°)14.8 km/hMostly Cloudy
4:35 AM6 °C5 °C93 %1013.9 hPa16.1 kmSSW (200°)9.3 km/hScattered Clouds
4:55 AM6 °C5 °C93 %1013.9 hPa16.1 kmSouth (190°)5.6 km/hPartly Cloudy
5:15 AM6 °C5 °C93 %1014.2 hPa16.1 kmSouth (190°)9.3 km/hPartly Cloudy
5:35 AM6 °C5 °C93 %1014.2 hPa16.1 kmSSW (200°)13 km/hRainLight Rain
5:55 AM6 °C5 °C93 %1014.2 hPa16.1 kmSouth (190°)11.1 km/hScattered Clouds
6:15 AM6 °C5 °C93 %1014.6 hPa16.1 kmSSW (210°)13 km/hMostly Cloudy
6:35 AM6 °C5 °C93 %1014.6 hPa16.1 kmSSW (210°)9.3 km/hRainLight Rain
6:55 AM6 °C5 °C93 %1014.6 hPa16.1 kmSouth (190°)7.4 km/hMostly Cloudy
7:35 AM6 °C4 °C87 %1014.6 hPa16.1 kmSouth (190°)9.3 km/hClear
7:55 AM6 °C4 °C87 %1014.6 hPa16.1 kmSouth (190°)14.8 km/hPartly Cloudy
8:15 AM6 °C4 °C87 %1014.6 hPa16.1 kmSouth (180°)13 km/hClear
8:35 AM7 °C4 °C81 %1014.9 hPa16.1 kmSouth (180°)13 km/hPartly Cloudy
9:15 AM7 °C4 °C81 %1014.9 hPa16.1 kmSouth (170°)9.3 km/hMostly Cloudy
9:35 AM7 °C4 °C81 %1014.9 hPa16.1 kmCalmOvercast
9:55 AM7 °C4 °C81 %1014.9 hPa16.1 kmSouth (170°)9.3 km/hOvercast
10:15 AM7 °C4 °C81 %1014.9 hPa16.1 kmSouth (180°)13 km/hOvercast
10:35 AM7 °C4 °C81 %1014.6 hPa16.1 kmSouth (180°)14.8 km/h27.8 km/hOvercast
10:55 AM8 °C4 °C76 %1014.6 hPa16.1 kmSouth (170°)11.1 km/hOvercast
11:15 AM8 °C4 °C76 %1014.6 hPa16.1 kmSouth (180°)14.8 km/h29.6 km/hMostly Cloudy
11:55 AM8 °C4 °C76 %1013.9 hPa16.1 kmSouth (170°)16.7 km/h27.8 km/hMostly Cloudy
12:15 PM8 °C4 °C76 %1013.9 hPa16.1 kmSouth (180°)14.8 km/h31.5 km/hMostly Cloudy
12:35 PM8 °C4 °C76 %1013.5 hPa16.1 kmSouth (190°)20.4 km/h35.2 km/hMostly Cloudy
12:55 PM8 °C4 °C76 %1013.2 hPa16.1 kmSouth (180°)18.5 km/h31.5 km/hMostly Cloudy
1:15 PM8 °C4 °C76 %1013.2 hPa16.1 kmSouth (170°)16.7 km/h33.3 km/hScattered Clouds
1:35 PM8 °C4 °C76 %1012.9 hPa16.1 kmSouth (180°)14.8 km/h27.8 km/hClear
1:55 PM8 °C4 °C76 %1012.9 hPa16.1 kmSouth (170°)13 km/hPartly Cloudy
2:15 PM8 °C4 °C76 %1012.9 hPa16.1 kmSouth (170°)13 km/hRainLight Rain
2:35 PM8 °C4 °C76 %1012.5 hPa16.1 kmSSE (160°)13 km/h27.8 km/hRainLight Rain
2:55 PM8 °C4 °C76 %1012.5 hPa16.1 kmSSE (160°)14.8 km/hMostly Cloudy
3:15 PM8 °C4 °C76 %1012.9 hPa9.7 kmSSE (160°)11.1 km/hRainLight Rain
3:35 PM7 °C4 °C81 %1012.5 hPa8 kmSSE (150°)11.1 km/hRainLight Rain
3:55 PM7 °C4 °C81 %1012.2 hPa8 kmSSE (150°)11.1 km/hRainLight Rain
4:15 PM8 °C4 °C76 %1012.2 hPa8 kmSSE (150°)13 km/hRainLight Rain
4:35 PM8 °C4 °C76 %1011.9 hPa14.5 kmSSE (150°)13 km/hRainLight Rain
5:15 PM8 °C4 °C76 %1011.5 hPa14.5 kmSE (140°)7.4 km/hRainLight Rain
5:55 PM8 °C4 °C76 %1011.2 hPa16.1 kmSE (140°)16.7 km/h37 km/hOvercast
6:15 PM8 °C4 °C76 %1010.8 hPa16.1 kmSE (130°)14.8 km/h29.6 km/hOvercast
6:35 PM8 °C4 °C76 %1010.5 hPa16.1 kmSSE (150°)20.4 km/h38.9 km/hMostly Cloudy
6:55 PM8 °C4 °C76 %1010.2 hPa16.1 kmSSE (150°)18.5 km/h31.5 km/hScattered Clouds
7:15 PM8 °C4 °C76 %1009.8 hPa16.1 kmSSE (150°)18.5 km/h33.3 km/hMostly Cloudy
7:35 PM8 °C3 °C71 %1009.5 hPa16.1 kmSSE (160°)14.8 km/h27.8 km/hMostly Cloudy
7:55 PM8 °C3 °C71 %1008.8 hPa16.1 kmSSE (150°)20.4 km/h40.7 km/hMostly Cloudy
8:15 PM8 °C3 °C71 %1008.8 hPa16.1 kmSSE (160°)22.2 km/h40.7 km/hPartly Cloudy
8:55 PM8 °C3 °C71 %1008.1 hPa16.1 kmSSE (160°)14.8 km/h38.9 km/hClear
9:15 PM8 °C3 °C71 %1007.5 hPa16.1 kmSSE (150°)13 km/h44.4 km/hClear
9:35 PM9 °C3 °C66 %1007.5 hPa16.1 kmSE (140°)18.5 km/h42.6 km/hClear
9:55 PM9 °C2 °C62 %1007.1 hPa16.1 kmSSE (150°)18.5 km/h46.3 km/hClear
10:15 PM9 °C2 °C62 %1007.1 hPa16.1 kmSE (140°)18.5 km/h42.6 km/hClear
10:35 PM9 °C2 °C62 %1006.8 hPa16.1 kmSE (140°)20.4 km/h31.5 km/hClear
10:55 PM9 °C2 °C62 %1006.4 hPa16.1 kmSE (140°)11.1 km/h35.2 km/hClear
11:15 PM10 °C2 °C58 %1006.4 hPa16.1 kmSSE (150°)25.9 km/h38.9 km/hClear
11:35 PM9 °C2 °C62 %1006.4 hPa16.1 kmSSE (160°)16.7 km/h40.7 km/hClear
11:55 PM9 °C2 °C62 %1006.4 hPa16.1 kmSSE (150°)18.5 km/h33.3 km/hClear
Hourly data recorded from CZBB, located 0 kilometers away from Vancouver, British Columbia







STORIES FROM OUR PARTNERS